FW7766 Weather Reports


time (UTC)temp
C
wind
direction
speed
KPH
gust
KPH
rain 1hr
cm
rain 24hr
cm
rain mn
cm
humidity
%
barometer
mb
20260510190547 26 291 3.2 4.8 0.00 0.00 0.00 44 1015.7
20260510185543 27 270 0.0 3.2 0.00 0.00 0.00 44 1015.6
20260510184540 27 270 0.0 1.6 0.00 0.00 0.00 44 1015.7
20260510183537 27 270 0.0 1.6 0.00 0.00 0.00 44 1015.6
20260510182533 27 270 0.0 1.6 0.00 0.00 0.00 44 1015.7
20260510181530 27 0.0 1.6 0.00 0.00 0.00 44 1015.9
20260510180527 27 0.0 0.0 0.00 0.00 0.00 44 1015.9
20260510175523 27 100 1.6 4.8 0.00 0.00 0.00 44 1015.9
20260510174519 27 123 3.2 3.2 0.00 0.00 0.00 44 1016.2
20260510173516 27 270 1.6 4.8 0.00 0.00 0.00 44 1016.3
20260510172613 27 270 3.2 4.8 0.00 0.00 0.00 44 1016.4
20260510171610 28 200 1.6 4.8 0.00 0.00 0.00 44 1016.4
20260510170606 27 231 1.6 4.8 0.00 0.00 0.00 44 1016.4
20260510165603 28 270 1.6 4.8 0.00 0.00 0.00 44 1016.3
20260510164559 29 259 1.6 3.2 0.00 0.00 0.00 44 1016.5
20260510163556 28 160 1.6 3.2 0.00 0.00 0.00 44 1016.6
20260510162632 28 270 0.0 3.2 0.00 0.00 0.00 44 1016.6
20260510161548 27 270 1.6 4.8 0.00 0.00 0.00 44 1016.7
20260510160545 26 270 1.6 1.6 0.00 0.00 0.00 44 1016.8
20260510155542 25 270 1.6 3.2 0.00 0.00 0.00 44 1016.9
20260510154538 25 270 3.2 4.8 0.00 0.00 0.00 44 1016.8
20260510153535 25 270 0.0 1.6 0.00 0.00 0.00 44 1017.0
20260510152531 23 270 1.6 3.2 0.00 0.00 0.00 44 1017.0
20260510151528 22 270 1.6 3.2 0.00 0.00 0.00 44 1017.0
20260510150524 22 270 1.6 4.8 0.00 0.00 0.00 44 1017.0
20260510145520 22 270 1.6 3.2 0.00 0.00 0.00 44 1017.1
20260510144515 21 270 1.6 4.8 0.00 0.00 0.00 42 1017.0
20260510143652 21 0.0 0.0 0.00 0.00 0.00 40 1017.0
20260510142629 21 270 1.6 3.2 0.00 0.00 0.00 43 1017.0
20260510141605 21 0.0 0.0 0.00 0.00 0.00 40 1017.1
20260510140602 20 0.0 0.0 0.00 0.00 0.00 45 1017.1
20260510135559 19 0.0 0.0 0.00 0.00 0.00 46 1017.2
20260510134555 18 270 0.0 1.6 0.00 0.00 0.00 47 1017.1
20260510133552 18 270 0.0 3.2 0.00 0.00 0.00 50 1017.0
20260510132548 17 0.0 0.0 0.00 0.00 0.00 51 1017.0
20260510131546 16 0.0 0.0 0.00 0.00 0.00 56 1016.9
20260510130542 16 0.0 0.0 0.00 0.00 0.00 60 1016.9
20260510125538 15 0.0 0.0 0.00 0.00 0.00 67 1016.9
20260510124535 14 0.0 0.0 0.00 0.00 0.00 71 1016.9
20260510123532 13 0.0 0.0 0.00 0.00 0.00 75 1016.7
20260510122528 13 0.0 0.0 0.00 0.00 0.00 76 1016.6
20260510121545 12 0.0 0.0 0.00 0.00 0.00 78 1016.4
20260510120521 12 0.0 0.0 0.00 0.00 0.00 77 1016.3
20260510115538 12 0.0 0.0 0.00 0.00 0.00 77 1016.1
20260510114655 12 0.0 0.0 0.00 0.00 0.00 81 1015.6
20260510113611 11 0.0 0.0 0.00 0.00 0.00 79 1015.5
20260510112608 11 0.0 0.0 0.00 0.00 0.00 80 1015.5
20260510111604 11 0.0 0.0 0.00 0.00 0.00 79 1015.4
20260510110601 11 0.0 0.0 0.00 0.00 0.00 79 1015.2
20260510105558 11 0.0 0.0 0.00 0.00 0.00 77 1015.2
20260510104554 11 0.0 0.0 0.00 0.00 0.00 77 1015.0
20260510103551 11 0.0 0.0 0.00 0.00 0.00 76 1014.7
20260510102548 11 0.0 0.0 0.00 0.00 0.00 75 1014.7
20260510101544 11 0.0 0.0 0.00 0.00 0.00 75 1014.5
20260510100541 12 0.0 0.0 0.00 0.00 0.00 75 1014.3
20260510095557 12 0.0 0.0 0.00 0.00 0.00 75 1014.3
20260510094534 12 0.0 0.0 0.00 0.00 0.00 75 1014.1
20260510093530 12 0.0 0.0 0.00 0.00 0.00 72 1014.1
20260510092607 12 0.0 0.0 0.00 0.00 0.00 71 1013.9
20260510091523 12 0.0 0.0 0.00 0.00 0.00 71 1013.9
20260510090520 12 0.0 0.0 0.00 0.00 0.00 71 1013.9
20260510085536 12 0.0 0.0 0.00 0.00 0.00 70 1013.9
20260510084613 12 0.0 0.0 0.00 0.00 0.00 70 1013.8
20260510083630 13 0.0 0.0 0.00 0.00 0.00 71 1013.9
20260510082607 13 0.0 0.0 0.00 0.00 0.00 71 1013.6
20260510081603 13 0.0 0.0 0.00 0.00 0.00 71 1013.4
20260510080600 13 0.0 0.0 0.00 0.00 0.00 71 1013.4
20260510075557 13 0.0 0.0 0.00 0.00 0.00 71 1013.2
20260510074613 13 0.0 0.0 0.00 0.00 0.00 70 1013.1
20260510073549 13 0.0 0.0 0.00 0.00 0.00 70 1013.1
20260510072546 13 0.0 0.0 0.00 0.00 0.00 70 1013.2
20260510071542 13 0.0 0.0 0.00 0.00 0.00 70 1013.0
20260510070540 13 0.0 0.0 0.00 0.00 0.00 69 1013.0
20260510065536 14 0.0 0.0 0.00 0.00 0.00 69 1012.9
20260510064533 14 0.0 0.0 0.00 0.00 0.00 69 1013.0
20260510063529 14 0.0 0.0 0.00 0.00 0.00 69 1013.2
20260510062606 14 0.0 0.0 0.00 0.00 0.00 68 1013.0
20260510061522 14 0.0 0.0 0.00 0.00 0.00 68 1013.2
20260510060519 15 0.0 0.0 0.00 0.00 0.00 68 1013.1
20260510055515 15 0.0 0.0 0.00 0.00 0.00 68 1013.2
20260510054612 15 0.0 0.0 0.00 0.00 0.00 68 1013.3
20260510053609 15 0.0 0.0 0.00 0.00 0.00 67 1013.2
20260510052606 15 0.0 0.0 0.00 0.00 0.00 68 1013.3
20260510051602 15 0.0 0.0 0.00 0.00 0.00 67 1013.3
20260510050559 15 0.0 0.0 0.00 0.00 0.00 67 1013.3
20260510045555 16 0.0 0.0 0.00 0.00 0.00 68 1013.4
20260510044551 16 0.0 0.0 0.00 0.00 0.00 68 1013.4
20260510043548 16 0.0 0.0 0.00 0.00 0.00 67 1013.4
20260510042545 16 0.0 0.0 0.00 0.00 0.00 67 1013.5
20260510041542 16 0.0 0.0 0.00 0.00 0.00 66 1013.2
20260510040538 16 0.0 0.0 0.00 0.00 0.00 66 1013.3
20260510035535 16 0.0 0.0 0.00 0.00 0.00 67 1013.3
20260510034531 16 0.0 0.0 0.00 0.00 0.00 65 1013.2
20260510033528 17 0.0 0.0 0.00 0.00 0.00 65 1013.4
20260510032524 17 0.0 0.0 0.00 0.00 0.00 61 1013.5
20260510031521 17 0.0 0.0 0.00 0.00 0.00 61 1013.4
20260510030517 17 0.0 0.0 0.00 0.00 0.00 61 1013.4
20260510025615 17 0.0 0.0 0.00 0.00 0.00 60 1013.2
20260510024611 17 0.0 0.0 0.00 0.00 0.00 60 1013.3
20260510023607 18 0.0 0.0 0.00 0.00 0.00 60 1013.2
20260510022604 18 0.0 0.0 0.00 0.00 0.00 60 1013.0
20260510021620 18 0.0 0.0 0.00 0.00 0.00 59 1012.9
20260510020557 18 0.0 0.0 0.00 0.00 0.00 58 1012.7
20260510015553 18 0.0 0.0 0.00 0.00 0.00 58 1012.5
20260510014550 18 0.0 0.0 0.00 0.00 0.00 58 1012.7
20260510013547 18 0.0 0.0 0.00 0.00 0.00 57 1012.6
20260510012543 19 0.0 0.0 0.00 0.00 0.00 57 1012.4
20260510011539 19 0.0 0.0 0.00 0.00 0.00 57 1012.2
20260510010536 19 0.0 0.0 0.00 0.00 0.00 56 1011.8
20260510005533 20 0.0 0.0 0.00 0.00 0.00 56 1011.9
20260510004529 20 0.0 0.0 0.00 0.00 0.00 56 1011.6
20260510003526 20 0.0 0.0 0.00 0.00 0.00 55 1011.4
20260510002522 20 0.0 0.0 0.00 0.00 0.00 55 1011.2
20260510001519 20 0.0 0.0 0.00 0.00 0.00 55 1011.3
20260510000535 20 0.0 0.0 0.00 0.00 0.00 55 1011.1
20260509235613 20 0.0 0.0 0.00 0.00 0.00 55 1011.2
20260509234609 21 0.0 0.0 0.00 0.00 0.00 53 1011.2
20260509233606 21 0.0 0.0 0.00 0.00 0.00 52 1011.1
20260509232602 21 0.0 0.0 0.00 0.00 0.00 51 1010.8
20260509231559 21 0.0 0.0 0.00 0.00 0.00 50 1010.7
20260509230555 21 0.0 0.0 0.00 0.00 0.00 48 1010.7
20260509225552 21 0.0 0.0 0.00 0.00 0.00 48 1010.5
20260509224629 22 0.0 0.0 0.00 0.00 0.00 48 1010.4
20260509223545 22 270 0.0 4.8 0.00 0.00 0.00 47 1010.3
20260509222542 22 270 0.0 3.2 0.00 0.00 0.00 46 1010.3
20260509221538 22 270 0.0 1.6 0.00 0.00 0.00 46 1010.5
20260509220535 22 0.0 1.6 0.00 0.00 0.00 45 1010.3
20260509215531 22 270 1.6 4.8 0.00 0.00 0.00 46 1010.3
20260509214528 22 270 1.6 3.2 0.00 0.00 0.00 45 1010.2
20260509213525 22 270 1.6 4.8 0.00 0.00 0.00 46 1010.2
20260509212541 23 270 1.6 4.8 0.00 0.00 0.00 45 1010.1
20260509211517 23 270 1.6 4.8 0.00 0.00 0.00 45 1010.1
20260509210614 23 195 0.0 1.6 0.00 0.00 0.00 45 1010.1
20260509205631 22 218 1.6 3.2 0.00 0.00 0.00 47 1009.9
20260509204627 22 180 0.0 1.6 0.00 0.00 0.00 46 1010.0
20260509203604 22 270 0.0 1.6 0.00 0.00 0.00 46 1010.1
20260509202601 22 270 1.6 4.8 0.00 0.00 0.00 45 1010.1
20260509201557 23 236 1.6 4.8 0.00 0.00 0.00 44 1010.2
20260509200634 23 0.0 1.6 0.00 0.00 0.00 46 1010.2
20260509195550 22 249 3.2 4.8 0.00 0.00 0.00 45 1010.2
20260509194607 23 217 0.0 3.2 0.00 0.00 0.00 45 1010.4
20260509193544 23 270 0.0 4.8 0.00 0.00 0.00 46 1010.5
20260509192601 22 225 1.6 3.2 0.00 0.00 0.00 46 1010.9
20260509191537 22 255 1.6 4.8 0.00 0.00 0.00 46 1010.8